Weather History for Beckley, WV

Change the Weather History Date:

Sunday, March 17, 2013

  Actual Average Record
Temperature  
Mean Temperature 42 °F 42 °F  
Max Temperature 46 °F 52 °F 80 °F (1927)
Min Temperature 37 °F 32 °F 7 °F (1900)
Degree Days  
Heating Degree Days 23 23  
Month to date heating degree days 492 428  
Since 1 July heating degree days 4306 4429  
Cooling Degree Days 0 0  
Month to date cooling degree days 0 0  
Year to date cooling degree days 0 0  
Moisture  
Dew Point 38 °F    
Average Humidity 84    
Maximum Humidity 92    
Minimum Humidity 76    
Precipitation  
Precipitation 0.07 in 0.12 in 1.80 in (1963)
Month to date precipitation 1.07 1.92  
Year to date precipitation 7.26 7.49  
Snow  
Snow 0.00 in - - ()
Month to date snowfall 8.8  
Since 1 September snowfall 64.7  
Snow Depth 0.00 in    
Sea Level Pressure  
Sea Level Pressure 30.00 in    
Wind  
Wind Speed 7 mph (NNE)    
Max Wind Speed 21 mph    
Max Gust Speed 29 mph    
Visibility 6 miles    
Events Fog , Rain    
T = Trace of Precipitation, MM = Missing Value Source: NWS Daily Summary

Daily Weather History Graph

Daily Weather History Graph

Search for Another Location

Airport:

Trip Planner

Search our weather history database for the weather conditions in past years. The results will help you decide how hot, cold, wet, or windy it might be!

Date:

Astronomy

Mar. 17, 2013 Rise Set
Actual Time 7:32 AM EDT 7:33 PM EDT
Civil Twilight 7:06 AM EDT 7:59 PM EDT
Nautical Twilight 6:35 AM EDT 8:30 PM EDT
Astronomical Twilight 6:04 AM EDT 9:01 PM EDT
Moon 10:49 AM EDT (3/17) 12:34 AM EDT (3/17)
Length of Visible Light 12h 53m
Length of Day
12h 01m
Waxing Crescent, 31% of the Moon is Illuminated
Mar 17
Waxing Crescent
Mar 19
First Quarter
Mar 27
Full
Apr 3
Last Quarter
Apr 10
New

Hourly Weather History & Observations

Time (EDT) Temp. Windchill Dew Point Humidity Pressure Visibility Wind Dir Wind Speed Gust Speed Precip Events Conditions
12:51 AM 46.9 °F - 39.9 °F 77% 29.90 in 8.0 mi North 9.2 mph - N/A   Overcast
1:51 AM 45.0 °F 40.6 °F 39.9 °F 82% 29.89 in 7.0 mi NNW 8.1 mph - N/A   Overcast
2:51 AM 45.0 °F 41.2 °F 39.0 °F 80% 29.89 in 7.0 mi North 6.9 mph - N/A   Overcast
3:51 AM 43.0 °F 41.3 °F 39.0 °F 86% 29.89 in 7.0 mi NW 3.5 mph - 0.00 in   Overcast
4:39 AM 42.8 °F 41.1 °F 37.4 °F 81% 29.91 in 7.0 mi NNW 3.5 mph - N/A   Overcast
4:51 AM 43.0 °F - 39.0 °F 86% 29.90 in 7.0 mi Calm Calm - N/A   Overcast
5:18 AM 42.8 °F - 39.2 °F 87% 29.92 in 7.0 mi Calm Calm - N/A   Overcast
5:29 AM 42.8 °F - 39.2 °F 87% 29.92 in 7.0 mi Calm Calm - N/A   Overcast
5:48 AM 42.8 °F - 39.2 °F 87% 29.93 in 7.0 mi Calm Calm - N/A   Overcast
5:51 AM 42.1 °F - 39.0 °F 89% 29.91 in 7.0 mi Calm Calm - N/A   Overcast
6:51 AM 43.0 °F 41.3 °F 39.0 °F 86% 29.93 in 6.0 mi North 3.5 mph - N/A   Overcast
7:02 AM 42.8 °F 41.1 °F 39.2 °F 87% 29.96 in 6.0 mi North 3.5 mph - N/A   Overcast
7:51 AM 42.1 °F 39.2 °F 39.0 °F 89% 29.98 in 3.0 mi North 4.6 mph - 0.02 in Rain Rain
7:56 AM 42.8 °F 40.1 °F 39.2 °F 87% 30.00 in 2.5 mi NNW 4.6 mph - 0.02 in Rain Rain
8:11 AM 41.0 °F 38.0 °F 39.2 °F 93% 30.00 in 2.0 mi NNW 4.6 mph - 0.02 in Rain Light Rain
8:33 AM 42.8 °F 38.0 °F 39.2 °F 87% 30.01 in 1.8 mi North 8.1 mph - 0.02 in Rain Light Rain
8:51 AM 41.0 °F 35.2 °F 39.0 °F 93% 30.03 in 0.8 mi NNW 9.2 mph - 0.02 in   Overcast
9:02 AM 39.2 °F 33.6 °F 37.4 °F 93% 30.02 in 0.2 mi NNE 8.1 mph - N/A Fog Fog
9:30 AM 39.2 °F 35.0 °F 37.4 °F 93% 30.03 in 0.5 mi North 5.8 mph - 0.00 in Fog , Rain Light Rain
9:37 AM 39.2 °F 35.0 °F 37.4 °F 93% 30.03 in 0.2 mi NNE 5.8 mph - 0.00 in Fog , Rain Light Rain
9:51 AM 39.0 °F 34.0 °F 37.0 °F 93% 30.05 in 0.8 mi NNE 6.9 mph - 0.00 in Rain Light Rain
10:08 AM 37.4 °F 32.1 °F 37.4 °F 100% 30.04 in 2.0 mi North 6.9 mph - 0.00 in Rain Light Rain
10:24 AM 37.4 °F 33.8 °F 37.4 °F 100% 30.05 in 1.2 mi NNE 4.6 mph - 0.00 in   Overcast
10:38 AM 37.4 °F 32.8 °F 37.4 °F 100% 30.04 in 3.0 mi NE 5.8 mph - 0.00 in   Overcast
10:51 AM 37.9 °F 33.5 °F 36.0 °F 93% 30.06 in 4.0 mi NNE 5.8 mph - 0.00 in   Overcast
11:51 AM 39.0 °F - 36.0 °F 89% 30.06 in 10.0 mi Calm Calm - N/A   Overcast
12:51 PM 39.9 °F 37.8 °F 37.0 °F 89% 30.05 in 8.0 mi ESE 3.5 mph - N/A   Overcast
1:16 PM 41.0 °F - 37.4 °F 87% 30.02 in 10.0 mi Calm Calm - N/A   Overcast
1:51 PM 41.0 °F 37.1 °F 37.0 °F 86% 30.06 in 10.0 mi North 5.8 mph - N/A   Overcast
2:51 PM 41.0 °F 35.8 °F 37.0 °F 86% 30.04 in 10.0 mi NNE 8.1 mph - N/A   Overcast
3:12 PM 39.2 °F 35.9 °F 37.4 °F 93% 30.00 in 10.0 mi NNE 4.6 mph - N/A   Overcast
3:51 PM 39.9 °F 35.8 °F 37.0 °F 89% 30.02 in 10.0 mi NE 5.8 mph - N/A   Overcast
4:51 PM 39.9 °F 35.1 °F 37.0 °F 89% 30.03 in 10.0 mi NNE 6.9 mph - N/A   Overcast
5:51 PM 39.9 °F 35.8 °F 37.0 °F 89% 30.04 in 10.0 mi NNE 5.8 mph - N/A   Overcast
6:01 PM 39.2 °F 35.0 °F 37.4 °F 93% 30.01 in 10.0 mi North 5.8 mph - N/A   Overcast
6:11 PM 39.2 °F 35.0 °F 37.4 °F 93% 30.01 in 10.0 mi NE 5.8 mph - N/A   Overcast
6:51 PM 39.9 °F 35.8 °F 37.0 °F 89% 30.04 in 2.5 mi NNE 5.8 mph - 0.00 in Rain Light Rain
7:02 PM 39.2 °F 35.9 °F 37.4 °F 93% 30.01 in 2.5 mi NE 4.6 mph - 0.01 in Rain Light Rain
7:14 PM 39.2 °F 35.9 °F 37.4 °F 93% 30.01 in 3.0 mi NNE 4.6 mph - 0.01 in Rain Light Rain
7:30 PM 39.2 °F 35.9 °F 37.4 °F 93% 30.01 in 6.0 mi East 4.6 mph - 0.01 in   Overcast
7:51 PM 41.0 °F 35.8 °F 37.9 °F 89% 30.03 in 10.0 mi ESE 8.1 mph - 0.01 in Rain Light Rain
8:02 PM 41.0 °F 37.1 °F 37.4 °F 87% 30.00 in 8.0 mi ESE 5.8 mph - 0.01 in Rain Light Rain
8:51 PM 41.0 °F 35.2 °F 37.9 °F 89% 30.06 in 10.0 mi SE 9.2 mph 20.7 mph 0.01 in   Overcast
9:51 PM 39.9 °F 32.1 °F 37.0 °F 89% 30.05 in 10.0 mi SE 13.8 mph 20.7 mph 0.01 in Rain Light Rain
10:05 PM 39.2 °F 30.5 °F 35.6 °F 87% 30.00 in 10.0 mi SE 16.1 mph 25.3 mph 0.00 in Rain Light Rain
10:36 PM 39.2 °F 30.5 °F 35.6 °F 87% 30.01 in 10.0 mi SE 16.1 mph 27.6 mph 0.00 in   Overcast
10:51 PM 39.0 °F 30.6 °F 36.0 °F 89% 30.06 in 10.0 mi SE 15.0 mph 26.5 mph 0.00 in   Overcast
11:42 PM 37.4 °F 28.5 °F 35.6 °F 93% 30.01 in 10.0 mi SE 15.0 mph 24.2 mph 0.00 in   Overcast
11:51 PM 37.9 °F 29.6 °F 35.1 °F 89% 30.06 in 10.0 mi SE 13.8 mph 25.3 mph 0.00 in   Overcast